Location: *
(37.4917°N, 71.5558°E)
Time: 02:59:40
(UTC+00:00)

USA 234 - Pass Details

Date: 09 April 2020
Orbit: 1102 x 1106 km, 123.0° (Epoch: 14 May)

Event Time Altitude Azimuth Distance (km) Brightness Sun altitude
Rises 16:16:49 0° 43° (NE) 3,923 6.1 -28.4°
Reaches altitude 10° 16:19:18 10° 42° (NE) 2,964 5.5 -28.8°
Maximum altitude 16:25:50 79° 318° (NW) 1,124 3.2 -29.8°
Drops below altitude 10° 16:32:22 10° 232° (SW) 2,955 5.6 -30.8°
Sets 16:34:50 0° 231° (SW) 3,911 6.3 -31.1°
